EW2137 Weather Reports


Display with metric or nautical units.
time (UTC)temp
F
wind
direction
speed
MPH
gust
MPH
rain 1hr
in
rain 24hr
in
rain mn
in
humidity
%
barometer
mb
20260505194515 72 259 8.0 14.0 0.00 0.00 0.00 46 1008.9
20260505193014 71 227 8.0 14.0 0.00 0.00 0.00 47 1009.0
20260505191514 70 222 11.0 16.0 0.00 0.00 0.00 48 1009.0
20260505190010 70 255 10.0 15.0 0.00 0.00 0.00 53 1009.1
20260505184507 68 238 12.0 17.0 0.00 0.00 0.00 53 1009.1
20260505183009 68 252 11.0 18.0 0.00 0.00 0.00 53 1009.2
20260505181503 67 234 12.0 19.0 0.00 0.00 0.00 55 1009.3
20260505180002 66 235 13.0 20.0 0.00 0.00 0.00 57 1009.2
20260505174559 65 245 16.0 23.0 0.00 0.00 0.00 57 1009.1
20260505173057 65 248 15.0 20.0 0.00 0.00 0.00 59 1009.2
20260505171602 64 232 16.0 22.0 0.00 0.00 0.00 59 1009.0
20260505170053 63 233 16.0 22.0 0.00 0.00 0.00 61 1009.0
20260505164551 62 236 17.0 22.0 0.00 0.00 0.00 61 1009.0
20260505163049 62 227 16.0 22.0 0.00 0.00 0.00 65 1009.0
20260505161549 61 217 15.0 22.0 0.00 0.00 0.00 66 1009.0
20260505153045 59 254 21.0 26.0 0.00 0.00 0.00 69 1008.5
20260505151539 58 221 19.0 27.0 0.00 0.00 0.00 71 1008.3
20260505124523 54 235 17.0 23.0 0.00 0.00 0.00 80 1007.0
20260505123025 55 232 17.0 22.0 0.00 0.00 0.00 80 1006.7
20260505121518 55 225 16.0 22.0 0.00 0.00 0.00 80 1006.6
20260505120015 56 239 17.0 24.0 0.00 0.00 0.00 78 1006.4
20260505114512 57 243 18.0 22.0 0.00 0.00 0.00 77 1006.3
20260505113012 57 238 18.0 26.0 0.00 0.00 0.00 76 1006.3
20260505111508 57 232 17.0 24.0 0.00 0.00 0.00 76 1006.3
20260505101604 59 246 17.0 24.0 0.00 0.00 0.00 74 1005.7
20260505100057 59 236 17.0 24.0 0.00 0.00 0.00 76 1005.6
20260505094554 59 247 17.0 22.0 0.00 0.00 0.00 76 1005.6
20260505093053 59 227 17.0 25.0 0.00 0.00 0.00 77 1005.3
20260505091555 59 234 17.0 23.0 0.00 0.00 0.00 76 1005.4
20260505090053 60 248 18.0 25.0 0.00 0.00 0.00 76 1005.4
20260505084600 60 233 18.0 24.0 0.00 0.00 0.00 76 1005.2
20260505083101 60 237 18.0 23.0 0.00 0.00 0.00 75 1005.5
20260505081548 60 242 18.0 23.0 0.00 0.00 0.00 74 1005.4
20260505080047 60 222 15.0 22.0 0.00 0.00 0.00 75 1005.4
20260505074545 60 238 17.0 22.0 0.00 0.00 0.00 74 1005.2
20260505073048 60 229 17.0 22.0 0.00 0.00 0.00 73 1005.1
20260505071539 60 223 16.0 22.0 0.00 0.00 0.00 72 1005.0
20260505070036 61 234 15.0 20.0 0.00 0.00 0.00 71 1004.9
20260505064544 62 228 16.0 21.0 0.00 0.00 0.00 68 1004.8
20260505063033 62 238 16.0 22.0 0.00 0.00 0.00 67 1004.7
20260505061532 62 234 16.0 21.0 0.00 0.00 0.00 66 1004.8
20260505060032 63 236 17.0 23.0 0.00 0.00 0.00 64 1004.7
20260505054544 63 221 16.0 22.0 0.00 0.00 0.00 63 1004.7
20260505053033 64 215 13.0 18.0 0.00 0.00 0.00 62 1004.7
20260505051530 64 235 15.0 20.0 0.00 0.00 0.00 61 1004.6
20260505041528 66 238 15.0 22.0 0.00 0.00 0.00 60 1004.2
20260505040030 66 227 16.0 22.0 0.00 0.00 0.00 58 1003.9
20260505034528 67 241 16.0 22.0 0.00 0.00 0.00 57 1003.7
20260505033029 67 239 14.0 21.0 0.00 0.00 0.00 57 1003.7
20260505031526 68 236 15.0 22.0 0.00 0.00 0.00 54 1003.6
20260505030041 69 223 16.0 20.0 0.00 0.00 0.00 53 1003.5
20260505024525 70 238 13.0 20.0 0.00 0.00 0.00 51 1003.4
20260505023027 72 239 14.0 22.0 0.00 0.00 0.00 48 1003.3
20260505021525 73 247 16.0 25.0 0.00 0.00 0.00 46 1003.3
20260505020023 74 244 18.0 25.0 0.00 0.00 0.00 44 1003.3
20260505014524 75 238 15.0 22.0 0.00 0.00 0.00 41 1003.3
20260505013022 77 248 17.0 21.0 0.00 0.00 0.00 39 1003.4
20260505011523 78 237 14.0 20.0 0.00 0.00 0.00 35 1003.3
20260505010020 79 234 16.0 22.0 0.00 0.00 0.00 33 1003.5
20260505004533 79 252 15.0 21.0 0.00 0.00 0.00 34 1003.5
20260505003019 80 241 16.0 20.0 0.00 0.00 0.00 29 1003.6
20260505001519 80 263 14.0 19.0 0.00 0.00 0.00 28 1003.6
20260505000019 80 244 13.0 18.0 0.00 0.00 0.00 29 1003.5
20260504234519 81 251 11.0 16.0 0.00 0.00 0.00 30 1003.5
20260504233020 81 273 8.0 14.0 0.00 0.00 0.00 30 1003.6
20260504231515 81 244 10.0 15.0 0.00 0.00 0.00 32 1003.8
20260504230014 81 259 7.0 14.0 0.00 0.00 0.00 33 1003.9
20260504224512 81 261 6.0 15.0 0.00 0.00 0.00 33 1004.0
20260504223011 81 265 5.0 9.0 0.00 0.00 0.00 28 1004.2
20260504221509 82 227 5.0 10.0 0.00 0.00 0.00 28 1004.2
20260504220007 82 331 1.0 6.0 0.00 0.00 0.00 28 1004.4
20260504214504 82 86 1.0 6.0 0.00 0.00 0.00 30 1004.5
20260504213004 81 170 1.0 5.0 0.00 0.00 0.00 29 1004.8
20260504211501 80 165 5.0 10.0 0.00 0.00 0.00 29 1005.0
20260504210100 80 193 4.0 7.0 0.00 0.00 0.00 28 1005.1
20260504204557 80 244 1.0 4.0 0.00 0.00 0.00 31 1005.1
20260504203057 79 83 4.0 8.0 0.00 0.00 0.00 34 1005.4
20260504201557 79 101 4.0 8.0 0.00 0.00 0.00 29 1005.5
20260504200057 79 323 4.0 7.0 0.00 0.00 0.00 29 1005.6